1511906400.99,1697,8.81,72660.5,-7.15,-16.83,-16.55,0,*61
1511906402.23,1698,8.81,72664.3,-7.17,-16.83,-16.59,0,*60
1511906403.48,1699,8.81,72666.8,-7.21,-16.89,-16.65,0,*61
1511906404.72,1700,8.81,72666.5,-7.17,-16.75,-16.59,0,*69
1511906405.93,1701,8.81,72664.0,-7.15,-16.75,-16.59,0,*6A
1511906407.16,1702,8.81,72666.5,-7.17,-16.75,-16.59,0,*6B
1511906408.4,1703,8.81,72664.0,-7.17,-16.75,-16.59,0,*6A
1511906409.66,1704,8.81,72664.0,-7.17,-16.69,-16.55,0,*6C
1511906410.89,1705,8.81,72666.8,-7.17,-16.75,-16.59,0,*6C
1511906412.15,1706,8.81,72664.8,-7.17,-16.69,-16.55,0,*6E
1511906413.41,1707,8.81,72666.0,-7.17,-16.69,-16.55,0,*6F
1511906414.67,1708,8.81,72666.0,-7.17,-16.69,-16.59,0,*6C
1511906415.9,1709,8.81,72664.5,-7.17,-16.75,-16.59,0,*60
1511906417.16,1710,8.81,72668.8,-7.17,-16.69,-16.55,0,*69
1511906418.42,1711,8.81,72666.3,-7.17,-16.69,-16.55,0,*68
1511906419.68,1712,8.81,72666.8,-7.17,-16.69,-16.59,0,*67
1511906420.93,1713,8.81,72666.3,-7.17,-16.69,-16.55,0,*6A
1511906422.17,1714,8.81,72664.8,-7.17,-16.75,-16.59,0,*6C
1511906423.4,1715,8.81,72664.3,-7.15,-16.69,-16.55,0,*6E
1511906424.63,1716,8.81,72666.8,-7.17,-16.59,-16.55,0,*6C
1511906425.84,1717,8.81,72660.5,-7.15,-16.55,-16.55,0,*63
1511906427.08,1718,8.81,72664.0,-7.17,-16.55,-16.55,0,*6E
1511906428.31,1719,8.81,72664.5,-7.21,-16.59,-16.59,0,*6A
1511906429.54,1720,8.81,72666.0,-7.21,-16.59,-16.59,0,*60
1511906430.79,1721,8.81,72664.8,-7.21,-16.51,-16.59,0,*69
1511906432.03,1722,8.81,72664.5,-7.21,-16.59,-16.59,0,*62
1511906433.25,1723,8.81,72664.0,-7.17,-16.59,-16.45,0,*6B
1511906434.48,1724,8.81,72670.5,-7.17,-16.55,-16.45,0,*60
1511906435.71,1725,8.81,72666.3,-7.17,-16.41,-16.45,0,*64
1511906436.94,1726,8.81,72666.8,-7.17,-16.55,-16.45,0,*62
1511906438.17,1727,8.81,72666.0,-7.17,-16.41,-16.41,0,*62
1511906439.4,1728,8.81,72664.8,-7.17,-16.45,-16.45,0,*6D
1511906440.65,1729,8.81,72666.8,-7.17,-16.45,-16.51,0,*69
1511906441.88,1730,8.81,72666.3,-7.17,-16.45,-16.41,0,*60
1511906443.11,1731,8.81,72668.5,-7.17,-16.41,-16.41,0,*65
1511906444.34,1732,8.81,72668.0,-7.17,-16.45,-16.45,0,*66
1511906445.57,1733,8.81,72668.3,-7.17,-16.45,-16.41,0,*63
1511906446.82,1734,8.81,72664.8,-7.21,-16.45,-16.51,0,*60
1511906448.02,1735,8.81,72666.3,-7.15,-16.41,-16.41,0,*63
1511906449.25,1736,8.81,72666.5,-7.15,-16.41,-16.31,0,*67
1511906450.51,1737,8.81,72666.5,-7.17,-16.41,-16.31,0,*64
1511906451.77,1738,8.81,72664.0,-7.17,-16.41,-16.31,0,*6B
1511906453.02,1739,8.81,72664.8,-7.21,-16.51,-16.37,0,*68
1511906454.24,1740,8.81,72664.5,-7.21,-16.45,-16.37,0,*63
1511906455.46,1741,8.81,72664.5,-7.21,-16.45,-16.37,0,*62
1511906456.69,1742,8.81,72666.3,-7.21,-16.37,-16.45,0,*61
1511906457.94,1743,8.81,72664.5,-7.17,-16.31,-16.41,0,*67
1511906459.19,1744,8.81,72666.8,-7.17,-16.41,-16.31,0,*60
1511906460.43,1745,8.81,72666.3,-7.17,-16.41,-16.41,0,*66
1511906461.65,1746,8.81,72668.5,-7.21,-16.45,-16.37,0,*65
1511906462.9,1747,8.81,72666.8,-7.17,-16.31,-16.41,0,*63
1511906464.18,1748,8.81,72664.0,-7.17,-16.31,-16.27,0,*6C
1511906465.43,1749,8.81,72670.0,-7.15,-16.31,-16.31,0,*68
1511906466.7,1750,8.81,72668.8,-7.17,-16.31,-16.27,0,*65
1511906467.95,1751,8.81,72670.3,-7.15,-16.31,-16.27,0,*66
1511906469.22,1752,8.81,72666.8,-7.17,-16.31,-16.31,0,*60
1511906470.5,1753,8.81,72666.5,-7.17,-16.31,-16.27,0,*66
1511906471.77,1754,8.81,72666.3,-7.17,-16.31,-16.27,0,*61
1511906473.04,1755,8.81,72664.0,-7.17,-16.31,-16.31,0,*67
1511906474.32,1756,8.81,72670.0,-7.17,-16.27,-16.27,0,*64
1511906475.6,1757,8.81,72662.8,-7.17,-16.31,-16.27,0,*62
1511906476.84,1758,8.81,72666.8,-7.15,-16.31,-16.27,0,*6F
1511906478.1,1759,8.81,72666.0,-7.15,-16.27,-16.17,0,*6A
1511906479.35,1760,8.81,72670.3,-7.15,-16.27,-16.27,0,*63
1511906480.62,1761,8.81,72664.8,-7.17,-16.31,-16.27,0,*67
1511906481.9,1762,8.81,72670.3,-7.17,-16.27,-16.27,0,*63
1511906483.15,1763,8.81,72668.5,-7.15,-16.27,-16.27,0,*60
1511906484.43,1764,8.81,72670.0,-7.17,-16.31,-16.17,0,*61
1511906485.71,1765,8.81,72666.5,-7.17,-16.31,-16.17,0,*60
1511906486.96,1766,8.81,72664.3,-7.15,-16.31,-16.27,0,*62
1511906488.23,1767,8.81,72666.3,-7.17,-16.31,-16.27,0,*61
1511906489.49,1768,8.81,72666.8,-7.15,-16.31,-16.17,0,*6F
1511906490.77,1769,8.81,72666.8,-7.17,-16.17,-16.17,0,*68
1511906492.06,1770,8.81,72668.5,-7.17,-16.27,-16.17,0,*63
1511906493.34,1771,8.81,72666.5,-7.17,-16.27,-16.17,0,*62
1511906494.59,1772,8.81,72666.8,-7.15,-16.27,-16.13,0,*67
1511906495.84,1773,8.81,72666.5,-7.15,-16.27,-16.17,0,*62
1511906497.13,1774,8.81,72666.5,-7.17,-16.27,-16.13,0,*63
1511906498.41,1775,8.81,72666.3,-7.17,-16.27,-16.17,0,*66
1511906499.69,1776,8.81,72664.3,-7.17,-16.27,-16.13,0,*61
1511906500.94,1777,8.81,72664.8,-7.15,-16.27,-16.13,0,*62
1511906502.22,1778,8.81,72666.0,-7.17,-16.31,-16.17,0,*6C
1511906503.48,1779,8.81,72666.3,-7.15,-16.17,-16.13,0,*6F
1511906504.76,1780,8.81,72666.5,-7.17,-16.17,-16.13,0,*6B
1511906506.04,1781,8.81,72664.8,-7.17,-16.27,-16.17,0,*6D
1511906507.32,1782,8.81,72664.3,-7.17,-16.27,-16.13,0,*6A
1511906508.61,1783,8.81,72666.0,-7.17,-16.13,-16.17,0,*68
1511906509.89,1784,8.81,72670.8,-7.17,-16.17,-16.17,0,*6B
1511906511.15,1785,8.81,72670.5,-7.17,-16.17,-15.99,0,*6F
1511906512.44,1786,8.81,72666.0,-7.17,-16.13,-16.09,0,*62
1511906513.72,1787,8.81,72664.8,-7.17,-16.17,-16.09,0,*67
1511906515.01,1788,8.81,72668.5,-7.17,-16.13,-16.09,0,*6C
1511906516.3,1789,8.81,72666.0,-7.17,-16.13,-16.09,0,*6D
1511906517.58,1790,8.81,72668.8,-7.17,-16.17,-16.09,0,*61
1511906518.84,1791,8.81,72666.8,-7.15,-16.17,-16.09,0,*62
1511906520.13,1792,8.81,72666.0,-7.17,-16.13,-16.13,0,*6C
1511906521.41,1793,8.81,72666.3,-7.17,-16.13,-16.13,0,*6D
1511906522.7,1794,8.81,72664.3,-7.17,-16.13,-16.09,0,*61
1511906523.95,1795,8.81,72664.0,-7.17,-16.27,-15.99,0,*6D
1511906525.24,1796,8.81,72664.5,-7.17,-16.13,-16.09,0,*63
1511906526.53,1797,8.81,72666.8,-7.17,-16.13,-16.09,0,*62
1511906527.79,1798,8.81,72664.0,-7.17,-16.13,-15.99,0,*67
1511906529.04,1799,8.81,72664.0,-7.17,-16.17,-15.99,0,*62
1511906530.33,1800,8.81,72666.0,-7.17,-16.13,-16.09,0,*63
1511906531.62,1801,8.75,72666.3,-7.17,-16.13,-16.09,0,*62
1511906532.88,1802,8.81,72668.3,-7.15,-16.09,-16.09,0,*68
1511906534.11,1803,8.75,72662.3,-7.15,-16.13,-15.99,0,*68
1511906535.34,1804,8.81,72668.5,-7.15,-16.17,-15.99,0,*6B
1511906536.57,1805,8.81,72668.0,-7.15,-16.13,-15.99,0,*6E
1511906537.86,1806,8.81,72666.5,-7.17,-16.13,-16.09,0,*65
1511906539.12,1807,8.81,72664.5,-7.15,-16.13,-16.09,0,*66
1511906540.35,1808,8.81,72670.0,-7.15,-16.09,-15.99,0,*68
1511906541.61,1809,8.81,72668.3,-7.17,-16.09,-15.99,0,*6B
1511906542.87,1810,8.81,72666.5,-7.17,-16.09,-15.95,0,*6F
1511906544.1,1811,8.81,72664.3,-7.15,-16.09,-15.95,0,*6C
1511906545.34,1812,8.81,72670.8,-7.15,-16.09,-15.99,0,*63
1511906546.56,1813,8.81,72664.8,-7.15,-15.99,-15.85,0,*65
1511906547.79,1814,8.81,72668.3,-7.15,-16.09,-15.95,0,*69
1511906549.03,1815,8.81,72666.5,-7.15,-16.09,-15.95,0,*68
1511906550.28,1816,8.81,72664.8,-7.17,-15.99,-15.85,0,*62
1511906551.53,1817,8.75,72664.3,-7.17,-15.99,-15.85,0,*63
1511906552.73,1818,8.81,72666.8,-7.15,-15.99,-15.95,0,*6F
1511906553.96,1819,8.81,72670.3,-7.15,-16.09,-15.95,0,*64
1511906555.19,1820,8.75,72666.3,-7.15,-16.09,-15.99,0,*62
1511906556.43,1821,8.75,72664.5,-7.15,-16.09,-15.95,0,*6F
1511906557.69,1822,8.75,72664.0,-7.17,-16.09,-15.95,0,*6E
1511906558.95,1823,8.75,72666.5,-7.15,-16.09,-15.85,0,*6C
1511906560.19,1824,8.81,72664.5,-7.15,-16.09,-15.95,0,*6A
1511906561.41,1825,8.81,72666.3,-7.15,-15.99,-15.85,0,*60
1511906562.61,1826,8.75,72666.5,-7.15,-15.95,-15.95,0,*6E
1511906563.86,1827,8.81,72666.5,-7.17,-15.99,-15.85,0,*60
1511906565.11,1828,8.81,72668.3,-7.17,-15.99,-15.85,0,*6F
1511906566.36,1829,8.81,72664.3,-7.17,-15.99,-15.85,0,*6E
1511906567.59,1830,8.75,72666.8,-7.15,-15.99,-15.85,0,*64
1511906568.81,1831,8.75,72666.0,-7.15,-15.99,-15.85,0,*65
1511906570.04,1832,8.75,72664.0,-7.15,-15.95,-15.81,0,*6E
1511906571.26,1833,8.81,72666.5,-7.15,-15.99,-15.85,0,*67
1511906572.49,1834,8.75,72664.3,-7.15,-15.99,-15.85,0,*60
1511906573.71,1835,8.75,72666.3,-7.15,-15.99,-15.85,0,*61
1511906574.94,1836,8.75,72662.8,-7.15,-15.95,-15.85,0,*6E
1511906576.17,1837,8.81,72668.0,-7.17,-15.95,-15.71,0,*66
1511906577.37,1838,8.75,72664.8,-7.15,-15.95,-15.71,0,*6B
1511906578.6,1839,8.81,72670.0,-7.15,-15.99,-15.81,0,*69
1511906579.83,1840,8.81,72668.8,-7.15,-15.95,-15.81,0,*6B
1511906581.06,1841,8.75,72664.8,-7.15,-15.99,-15.81,0,*66
1511906582.28,1842,8.75,72664.0,-7.17,-15.95,-15.67,0,*63
1511906583.51,1843,8.81,72668.5,-7.17,-15.95,-15.71,0,*65
1511906584.77,1844,8.75,72666.5,-7.17,-15.95,-15.81,0,*6D
1511906586.03,1845,8.81,72666.5,-7.15,-15.85,-15.81,0,*6F
1511906587.23,1846,8.75,72664.8,-7.15,-15.99,-15.71,0,*6E
1511906588.47,1847,8.81,72668.3,-7.13,-15.81,-15.67,0,*67
1511906589.69,1848,8.75,72666.0,-7.13,-15.95,-15.75,0,*6E
1511906590.95,1849,8.81,72668.8,-7.13,-15.89,-15.75,0,*62
1511906592.15,1850,8.81,72668.3,-7.15,-15.95,-15.71,0,*65
1511906593.38,1851,8.75,72664.0,-7.15,-15.85,-15.71,0,*65
1511906594.58,1852,8.81,72666.8,-7.15,-15.99,-15.71,0,*6B
1511906595.84,1853,8.75,72666.3,-7.15,-16.09,-15.81,0,*6F
1511906597.05,1854,8.75,72664.8,-7.15,-15.95,-15.71,0,*61
1511906598.3,1855,8.75,72668.0,-7.15,-15.85,-15.81,0,*6E
1511906599.53,1856,8.81,72668.8,-7.15,-15.85,-15.71,0,*62
1511906600.77,1857,8.75,72670.0,-7.15,-15.95,-15.81,0,*6D
1511906601.97,1858,8.81,72668.8,-7.15,-15.95,-15.71,0,*6D
1511906603.17,1859,8.75,72664.8,-7.15,-15.95,-15.71,0,*6C
1511906604.38,1860,8.75,72664.3,-7.15,-15.95,-15.71,0,*66
1511906605.61,1861,8.75,72666.3,-7.15,-15.85,-15.71,0,*66
1511906606.84,1862,8.75,72666.8,-7.15,-15.95,-15.81,0,*6B
1511906608.05,1863,8.75,72666.0,-7.15,-15.95,-15.71,0,*65
1511906609.3,1864,8.81,72668.3,-7.15,-15.85,-15.81,0,*6C
1511906610.54,1865,8.75,72664.8,-7.17,-15.95,-15.71,0,*61
1511906611.77,1866,8.81,72670.3,-7.15,-15.85,-15.71,0,*61
1511906613.02,1867,8.75,72668.3,-7.17,-15.85,-15.71,0,*62
1511906614.26,1868,8.81,72668.3,-7.17,-15.95,-15.71,0,*6C
1511906615.46,1869,8.75,72666.5,-7.15,-15.95,-15.71,0,*6F
1511906616.68,1870,8.75,72664.5,-7.15,-15.85,-15.67,0,*61
1511906617.91,1871,8.81,72670.3,-7.15,-15.85,-15.67,0,*60
1511906619.14,1872,8.75,72666.8,-7.15,-15.85,-15.71,0,*64
1511906620.37,1873,8.75,72666.0,-7.15,-15.85,-15.71,0,*65
1511906621.63,1874,8.75,72666.5,-7.17,-15.85,-15.71,0,*60
1511906622.86,1875,8.75,72664.5,-7.15,-15.85,-15.71,0,*63
1511906624.09,1876,8.75,72668.3,-7.15,-15.85,-15.71,0,*60
1511906625.32,1877,8.75,72668.3,-7.15,-15.85,-15.71,0,*61
1511906626.52,1878,8.75,72666.8,-7.15,-15.95,-15.71,0,*6F
1511906627.75,1879,8.75,72670.0,-7.15,-15.85,-15.67,0,*68
1511906628.97,1880,8.75,72664.0,-7.15,-15.85,-15.67,0,*6E
1511906630.2,1881,8.75,72666.5,-7.15,-15.85,-15.67,0,*6F
1511906631.45,1882,8.75,72670.8,-7.15,-15.85,-15.57,0,*6F
1511906632.67,1883,8.75,72664.0,-7.15,-15.81,-15.67,0,*69
1511906633.89,1884,8.75,72666.3,-7.15,-15.81,-15.67,0,*6E
1511906635.12,1885,8.81,72668.0,-7.15,-15.81,-15.67,0,*6F
1511906636.37,1886,8.75,72664.8,-7.17,-15.71,-15.57,0,*62
1511906637.62,1887,8.75,72668.5,-7.15,-15.81,-15.57,0,*6E
1511906638.84,1888,8.75,72670.3,-7.15,-15.81,-15.67,0,*62
1511906640.07,1889,8.75,72668.8,-7.15,-15.81,-15.67,0,*63
1511906641.29,1890,8.81,72670.8,-7.15,-15.71,-15.57,0,*67
1511906642.52,1891,8.75,72664.5,-7.15,-15.81,-15.67,0,*6A
1511906643.71,1892,8.75,72668.0,-7.15,-15.71,-15.67,0,*66
1511906644.96,1893,8.75,72668.5,-7.15,-15.81,-15.57,0,*6B
1511906646.19,1894,8.75,72670.8,-7.15,-15.81,-15.67,0,*6F
1511906647.41,1895,8.75,72668.5,-7.15,-15.71,-15.57,0,*62
1511906648.67,1896,8.75,72670.3,-7.15,-15.81,-15.57,0,*6E
1511906649.94,1897,8.75,72666.8,-7.17,-15.81,-15.57,0,*6D
1511906651.17,1898,8.75,72664.3,-7.15,-15.81,-15.67,0,*63
1511906652.36,1899,8.75,72662.3,-7.15,-15.95,-15.67,0,*67
1511906653.59,1900,8.75,72670.0,-7.15,-15.85,-15.67,0,*67
1511906654.81,1901,8.75,72668.0,-7.15,-15.85,-15.67,0,*66
1511906656.03,1902,8.75,72666.0,-7.13,-15.67,-15.63,0,*6B
1511906657.26,1903,8.75,72664.3,-7.15,-15.81,-15.67,0,*60
1511906658.45,1904,8.75,72664.3,-7.15,-15.95,-15.67,0,*62
1511906659.71,1905,8.75,72664.3,-7.17,-15.85,-15.67,0,*60
1511906660.9,1906,8.75,72666.5,-7.15,-15.71,-15.67,0,*6A
1511906662.16,1907,8.75,72666.0,-7.15,-15.85,-15.57,0,*63
1511906663.38,1908,8.75,72668.0,-7.15,-15.81,-15.67,0,*6B
1511906664.6,1909,8.75,72670.3,-7.15,-15.81,-15.67,0,*6A
1511906665.82,1910,8.75,72670.3,-7.15,-15.81,-15.67,0,*62
1511906667.08,1911,8.75,72668.8,-7.15,-15.85,-15.57,0,*64
1511906668.33,1912,8.75,72670.3,-7.15,-15.85,-15.57,0,*67
1511906669.55,1913,8.75,72670.5,-7.15,-15.81,-15.67,0,*61
1511906670.78,1914,8.75,72670.0,-7.15,-15.81,-15.67,0,*66
1511906672.02,1915,8.75,72664.0,-7.17,-15.81,-15.67,0,*65
1511906673.25,1916,8.75,72668.5,-7.15,-15.85,-15.67,0,*60
1511906674.47,1917,8.75,72664.5,-7.15,-15.85,-15.67,0,*61
1511906675.75,1918,8.75,72670.5,-7.17,-15.81,-15.57,0,*6B
1511906676.98,1919,8.75,72670.3,-7.15,-15.71,-15.57,0,*67
1511906678.2,1920,8.75,72668.3,-7.15,-15.81,-15.67,0,*61
1511906679.45,1921,8.75,72670.3,-7.15,-15.81,-15.57,0,*63
1511906680.68,1922,8.75,72668.8,-7.15,-15.85,-15.71,0,*60
1511906681.92,1923,8.75,72666.0,-7.15,-15.85,-15.71,0,*61
1511906683.16,1924,8.75,72668.8,-7.13,-15.81,-15.63,0,*67
1511906684.39,1925,8.75,72666.0,-7.13,-15.75,-15.53,0,*6E
1511906685.61,1926,8.75,72670.5,-7.13,-15.67,-15.63,0,*6D
1511906686.84,1927,8.75,72668.5,-7.15,-15.81,-15.67,0,*66
1511906688.08,1928,8.75,72668.5,-7.17,-15.81,-15.67,0,*6B
1511906689.3,1929,8.75,72666.8,-7.15,-15.81,-15.67,0,*68
1511906690.53,1930,8.75,72670.0,-7.15,-15.81,-15.67,0,*60
1511906691.75,1931,8.75,72670.5,-7.15,-15.85,-15.67,0,*65
1511906692.98,1932,8.75,72668.3,-7.15,-15.85,-15.67,0,*66
1511906694.2,1933,8.75,72668.0,-7.15,-15.85,-15.67,0,*67
1511906695.4,1934,8.75,72668.3,-7.15,-15.95,-15.67,0,*61
1511906696.6,1935,8.75,72666.5,-7.15,-15.95,-15.67,0,*60
1511906697.82,1936,8.75,72668.8,-7.15,-15.85,-15.67,0,*62
1511906699.07,1937,8.75,72668.8,-7.17,-15.85,-15.67,0,*61
1511906700.32,1938,8.75,72668.0,-7.13,-15.81,-15.63,0,*6A
1511906701.52,1939,8.75,72664.8,-7.15,-15.95,-15.67,0,*6C
1511906702.72,1940,8.75,72668.5,-7.15,-15.95,-15.67,0,*62
1511906703.94,1941,8.75,72664.5,-7.15,-15.85,-15.67,0,*62
1511906705.19,1942,8.75,72668.3,-7.17,-15.85,-15.67,0,*63
1511906706.45,1943,8.75,72664.8,-7.17,-15.85,-15.71,0,*65
1511906707.68,1944,8.75,72666.8,-7.15,-15.85,-15.71,0,*60
1511906708.89,1945,8.75,72666.5,-7.15,-15.95,-15.71,0,*60
1511906710.09,1946,8.75,72670.3,-7.15,-15.95,-15.71,0,*63
1511906711.29,1947,8.75,72666.8,-7.15,-15.95,-15.67,0,*65
1511906712.49,1948,8.75,72666.3,-7.15,-15.95,-15.67,0,*6A
1511906713.69,1949,8.75,72670.8,-7.15,-15.95,-15.71,0,*6C
1511906714.9,1950,8.75,72670.3,-7.15,-15.95,-15.71,0,*64
1511906716.13,1951,8.75,72670.3,-7.15,-15.85,-15.71,0,*64
1511906717.36,1952,8.75,72668.5,-7.17,-15.95,-15.71,0,*64
1511906718.59,1953,8.75,72670.0,-7.17,-15.95,-15.71,0,*65
1511906719.79,1954,8.75,72666.0,-7.15,-15.99,-15.71,0,*6C
1511906721.01,1955,8.75,72668.8,-7.17,-15.99,-15.71,0,*6F
1511906722.21,1956,8.75,72664.5,-7.15,-15.99,-15.71,0,*6E
1511906723.44,1957,8.75,72668.0,-7.15,-15.99,-15.81,0,*60
1511906724.66,1958,8.75,72668.5,-7.15,-15.99,-15.81,0,*6F
1511906725.86,1959,8.75,72666.3,-7.15,-15.99,-15.71,0,*61
1511906727.06,1960,8.75,72668.0,-7.15,-15.99,-15.71,0,*6B
1511906728.25,1961,8.75,72666.0,-7.15,-15.99,-15.71,0,*6A
1511906729.45,1962,8.75,72668.5,-7.15,-15.99,-15.71,0,*69
1511906730.65,1963,8.75,72664.8,-7.15,-15.99,-15.71,0,*68
1511906731.88,1964,8.75,72668.5,-7.15,-16.09,-15.71,0,*65
1511906733.08,1965,8.75,72668.3,-7.15,-15.99,-15.71,0,*6E
1511906734.32,1966,8.75,72670.3,-7.15,-16.09,-15.71,0,*67
1511906735.58,1967,8.75,72668.0,-7.15,-16.09,-15.81,0,*69
1511906736.84,1968,8.75,72668.5,-7.15,-16.09,-15.81,0,*66
1511906738.08,1969,8.75,72668.3,-7.15,-16.09,-15.71,0,*68
1511906739.3,1970,8.75,72668.8,-7.15,-15.99,-15.81,0,*65
1511906740.56,1971,8.75,72666.5,-7.15,-16.09,-15.85,0,*6A
1511906741.8,1972,8.75,72664.8,-7.15,-16.09,-15.71,0,*62
1511906743.06,1973,8.75,72670.0,-7.15,-16.09,-15.81,0,*6C
1511906744.29,1974,8.75,72668.8,-7.15,-16.09,-15.71,0,*64
1511906745.58,1975,8.75,72666.0,-7.17,-16.09,-15.81,0,*68
1511906746.8,1976,8.75,72666.3,-7.15,-15.99,-15.85,0,*67
1511906748.03,1977,8.75,72668.0,-7.15,-15.99,-15.81,0,*62
1511906749.29,1978,8.75,72668.5,-7.15,-16.09,-15.81,0,*67
1511906750.53,1979,8.75,72668.0,-7.15,-16.09,-15.71,0,*69
1511906751.75,1980,8.75,72666.8,-7.15,-15.99,-15.81,0,*6A
1511906752.99,1981,8.75,72668.5,-7.15,-16.09,-15.71,0,*6E
1511906754.25,1982,8.75,72668.3,-7.15,-16.09,-15.81,0,*62
1511906755.45,1983,8.75,72664.8,-7.15,-15.99,-15.71,0,*66
1511906756.71,1984,8.75,72668.3,-7.15,-16.09,-15.81,0,*64
1511906757.97,1985,8.75,72670.5,-7.15,-16.09,-15.85,0,*61
1511906759.23,1986,8.75,72668.8,-7.15,-16.09,-15.81,0,*66
1511906760.49,1987,8.75,72668.3,-7.15,-16.09,-15.85,0,*63
1511906761.75,1988,8.75,72664.0,-7.17,-16.09,-15.71,0,*65
1511906763.01,1989,8.75,72668.8,-7.15,-16.13,-15.81,0,*62
1511906764.27,1990,8.75,72664.3,-7.15,-16.13,-15.81,0,*6A
1511906765.53,1991,8.75,72666.3,-7.15,-16.13,-15.85,0,*6F
1511906766.79,1992,8.75,72668.3,-7.15,-16.09,-15.85,0,*67
1511906768.05,1993,8.75,72666.0,-7.17,-16.17,-15.95,0,*6A
1511906769.28,1994,8.75,72670.5,-7.15,-16.13,-15.95,0,*6B
1511906770.54,1995,8.75,72666.5,-7.15,-16.17,-15.85,0,*6F
1511906771.8,1996,8.75,72668.0,-7.15,-16.13,-15.85,0,*68
1511906773.06,1997,8.75,72670.8,-7.15,-16.13,-15.85,0,*69
1511906774.32,1998,8.75,72668.8,-7.17,-16.13,-15.95,0,*65
1511906775.58,1999,8.75,72668.0,-7.15,-16.13,-15.85,0,*67
1511906776.84,2000,8.75,72666.8,-7.15,-16.13,-15.85,0,*6D
1511906778.07,2001,8.75,72666.5,-7.15,-16.13,-15.95,0,*6D
1511906779.33,2002,8.75,72666.0,-7.15,-16.13,-15.85,0,*6F
1511906780.59,2003,8.75,72666.3,-7.15,-16.17,-15.85,0,*6A
1511906781.85,2004,8.75,72666.0,-7.15,-16.13,-15.85,0,*69
1511906783.08,2005,8.75,72666.5,-7.15,-16.13,-15.95,0,*69
1511906784.34,2006,8.75,72664.3,-7.17,-16.17,-15.95,0,*6C
1511906785.57,2007,8.75,72668.0,-7.15,-16.17,-15.95,0,*6F
1511906786.86,2008,8.75,72668.0,-7.17,-16.13,-15.85,0,*67
1511906788.12,2009,8.75,72666.5,-7.15,-16.13,-15.85,0,*64
1511906789.37,2010,8.75,72666.0,-7.15,-16.27,-15.85,0,*6B
1511906790.63,2011,8.75,72664.8,-7.15,-16.13,-15.85,0,*6D
1511906791.86,2012,8.75,72666.0,-7.15,-16.27,-15.95,0,*68
1511906793.11,2013,8.75,72664.8,-7.15,-16.17,-15.85,0,*6B
1511906794.4,2014,8.75,72666.5,-7.17,-16.17,-15.85,0,*6E
1511906795.63,2015,8.75,72670.0,-7.15,-16.13,-15.99,0,*64
1511906796.88,2016,8.75,72670.8,-7.15,-16.17,-15.85,0,*6E
1511906798.14,2017,8.75,72666.8,-7.15,-16.17,-15.85,0,*6F
1511906799.42,2018,8.75,72666.8,-7.13,-16.13,-15.81,0,*66
1511906800.66,2019,8.75,72670.3,-7.15,-16.17,-15.95,0,*60
1511906801.89,2020,8.75,72670.3,-7.15,-16.13,-15.95,0,*6E
1511906803.15,2021,8.75,72668.8,-7.15,-16.17,-15.85,0,*6A
1511906804.4,2022,8.75,72668.5,-7.15,-16.17,-15.85,0,*69
1511906805.63,2023,8.75,72670.0,-7.15,-16.27,-15.95,0,*6A
1511906806.86,2024,8.75,72668.0,-7.15,-16.17,-15.95,0,*6E
1511906808.1,2025,8.75,72670.0,-7.15,-16.17,-15.95,0,*6F
1511906809.33,2026,8.75,72664.5,-7.15,-16.17,-15.95,0,*6C
1511906810.56,2027,8.75,72664.5,-7.15,-16.17,-15.95,0,*6D
1511906811.82,2028,8.75,72666.0,-7.15,-16.17,-15.85,0,*63
1511906813.05,2029,8.75,72670.0,-7.15,-16.17,-15.95,0,*63
1511906814.28,2030,8.75,72670.0,-7.15,-16.17,-15.99,0,*67
1511906815.5,2031,8.75,72670.8,-7.15,-16.27,-15.99,0,*65
1511906816.73,2032,8.75,72670.5,-7.15,-16.27,-15.99,0,*66
1511906817.96,2033,8.75,72666.0,-7.15,-16.17,-15.99,0,*64
1511906819.18,2034,8.75,72668.3,-7.15,-16.17,-15.99,0,*63
1511906820.41,2035,8.75,72666.0,-7.15,-16.27,-15.99,0,*61
1511906821.64,2036,8.75,72668.3,-7.15,-16.27,-15.99,0,*62
1511906822.86,2037,8.75,72666.5,-7.15,-16.31,-15.99,0,*64
1511906824.09,2038,8.75,72668.8,-7.15,-16.27,-15.95,0,*60
1511906825.31,2039,8.75,72668.8,-7.15,-16.31,-15.95,0,*66
1511906826.57,2040,8.69,72664.0,-7.15,-16.27,-15.85,0,*6E
1511906827.8,2041,8.75,72666.8,-7.15,-16.27,-15.95,0,*6E
1511906829.02,2042,8.75,72664.5,-7.15,-16.27,-15.99,0,*61
1511906830.25,2043,8.75,72666.8,-7.15,-16.27,-15.95,0,*6C
1511906831.48,2044,8.75,72666.3,-7.15,-16.27,-15.95,0,*6B
1511906832.74,2045,8.75,72670.3,-7.17,-16.31,-15.95,0,*6F
1511906833.97,2046,8.75,72664.8,-7.15,-16.17,-15.95,0,*6A
1511906835.19,2047,8.75,72668.3,-7.15,-16.27,-15.95,0,*68
1511906836.42,2048,8.75,72666.5,-7.15,-16.31,-15.95,0,*60
1511906837.65,2049,8.75,72666.5,-7.15,-16.27,-15.99,0,*6A
1511906838.87,2050,8.75,72666.8,-7.15,-16.27,-15.99,0,*62
1511906840.12,2051,8.75,72668.3,-7.17,-16.31,-15.99,0,*66
1511906841.37,2052,8.75,72666.5,-7.17,-16.27,-15.99,0,*62
1511906842.63,2053,8.75,72670.0,-7.17,-16.27,-15.99,0,*63
1511906843.86,2054,8.75,72666.3,-7.15,-16.17,-15.95,0,*69
1511906845.12,2055,8.75,72666.8,-7.15,-16.17,-16.09,0,*6E
1511906846.37,2056,8.75,72664.8,-7.15,-16.17,-15.85,0,*6A
1511906847.61,2057,8.75,72666.5,-7.15,-16.17,-15.95,0,*6A
1511906848.84,2058,8.75,72668.8,-7.15,-16.27,-15.95,0,*66
1511906850.06,2059,8.75,72668.5,-7.15,-16.17,-15.99,0,*68
1511906851.3,2060,8.75,72666.3,-7.15,-16.17,-15.95,0,*6E
1511906852.52,2061,8.75,72664.8,-7.15,-16.17,-15.99,0,*63
1511906853.75,2062,8.75,72668.5,-7.15,-16.27,-15.99,0,*63
1511906854.98,2063,8.75,72670.0,-7.15,-16.27,-15.99,0,*62
1511906856.2,2064,8.75,72668.8,-7.15,-16.27,-15.99,0,*65
1511906857.47,2065,8.75,72670.0,-7.13,-16.23,-15.89,0,*67
1511906858.69,2066,8.75,72668.8,-7.15,-16.31,-15.99,0,*60
1511906859.92,2067,8.75,72666.8,-7.15,-16.27,-15.99,0,*66
1511906861.14,2068,8.75,72666.3,-7.15,-16.31,-15.99,0,*6E
1511906862.37,2069,8.75,72668.0,-7.15,-16.27,-15.99,0,*68
1511906863.62,2070,8.75,72666.3,-7.15,-16.27,-16.09,0,*6A
1511906864.88,2071,8.75,72666.5,-7.15,-16.27,-16.09,0,*6B
1511906866.14,2072,8.75,72670.5,-7.15,-16.27,-16.09,0,*68
1511906867.36,2073,8.75,72666.5,-7.15,-16.27,-15.99,0,*63
1511906868.59,2074,8.75,72668.5,-7.15,-16.27,-15.95,0,*68
1511906869.84,2075,8.75,72670.0,-7.17,-16.27,-15.99,0,*67
1511906871.08,2076,8.75,72668.8,-7.15,-16.17,-15.95,0,*69
1511906872.33,2077,8.69,72664.5,-7.17,-16.17,-15.99,0,*66
1511906873.56,2078,8.75,72666.8,-7.15,-16.27,-15.99,0,*68
1511906874.78,2079,8.75,72666.8,-7.15,-16.27,-15.99,0,*69
1511906876.01,2080,8.75,72668.3,-7.15,-16.13,-15.99,0,*68
1511906877.24,2081,8.69,72666.3,-7.15,-16.17,-15.99,0,*6D
1511906878.47,2082,8.75,72670.8,-7.15,-16.27,-15.99,0,*6D
1511906879.69,2083,8.69,72666.5,-7.15,-16.27,-15.99,0,*6C
1511906880.95,2084,8.69,72666.5,-7.15,-16.27,-16.09,0,*61
1511906882.2,2085,8.75,72670.3,-7.13,-16.23,-15.95,0,*64
1511906883.43,2086,8.75,72668.5,-7.11,-16.23,-15.95,0,*65
1511906884.67,2087,8.75,72668.5,-7.13,-16.23,-15.95,0,*66
1511906885.92,2088,8.75,72668.5,-7.13,-16.23,-15.95,0,*69
1511906887.17,2089,8.69,72664.8,-7.13,-16.23,-15.95,0,*68
1511906888.43,2090,8.69,72666.3,-7.15,-16.27,-16.09,0,*64
1511906889.69,2091,8.75,72668.0,-7.15,-16.17,-16.09,0,*66
1511906890.92,2092,8.75,72666.8,-7.15,-16.27,-15.99,0,*6C
1511906892.14,2093,8.75,72670.0,-7.15,-16.27,-15.99,0,*6D
1511906893.4,2094,8.75,72668.0,-7.15,-16.27,-16.09,0,*60
1511906894.62,2095,8.69,72666.8,-7.15,-16.27,-15.99,0,*6B
1511906895.88,2096,8.75,72666.0,-7.15,-16.17,-16.09,0,*61
1511906897.14,2097,8.69,72666.8,-7.15,-16.27,-16.09,0,*63
1511906898.36,2098,8.69,72664.5,-7.15,-16.27,-15.99,0,*66
1511906899.62,2099,8.75,72668.0,-7.15,-16.17,-16.09,0,*6E
1511906900.88,2100,8.69,72668.0,-7.13,-16.13,-15.95,0,*6B
1511906902.13,2101,8.75,72670.0,-7.15,-16.17,-16.09,0,*6E
1511906903.38,2102,8.69,72666.8,-7.13,-16.23,-15.95,0,*6A
1511906904.66,2103,8.69,72666.8,-7.13,-16.23,-15.89,0,*66
1511906905.89,2104,8.75,72668.5,-7.15,-16.17,-15.99,0,*61
1511906907.12,2105,8.69,72666.8,-7.15,-16.13,-15.99,0,*64
1511906908.37,2106,8.69,72664.8,-7.15,-16.17,-16.09,0,*69
1511906909.63,2107,8.75,72668.3,-7.17,-16.17,-15.99,0,*60
1511906910.89,2108,8.69,72668.5,-7.15,-16.17,-16.09,0,*67
1511906912.15,2109,8.69,72664.0,-7.15,-16.17,-16.09,0,*66
1511906913.38,2110,8.75,72666.5,-7.15,-16.17,-15.99,0,*64